Flight Track Log - Related Links

Times and Time Zones

All times are in EDT time to prevent confusion due to time zone crossing. See the N522PK flight status page for this flight to view local times or setup timezone preferences in your user account.

Time Position Orientation Groundspeed Altitude Reporting Facility
EDT Latitude Longitude Course Direction KTS MPH feet Rate Location/Type
Thu 04:23:29 PM 47.9390 -97.1660 181° South 98 113 1,300  Level FlightAware ADS-B
Thu 04:23:53 PM 47.9280 -97.1660 180° South 100 115 1,700 1,071 Climbing FlightAware ADS-B
Thu 04:23:57 PM 47.9260 -97.1640 146° Southeast 102 117 1,800 1,500 Climbing FlightAware ADS-B
Thu 04:24:05 PM 47.9230 -97.1590 132° Southeast 113 130 2,000 1,125 Climbing FlightAware ADS-B
Thu 04:24:13 PM 47.9210 -97.1540 121° Southeast 120 138 2,100 750 Climbing FlightAware ADS-B
Thu 04:24:21 PM 47.9200 -97.1470 102° East 127 146 2,200 889 Climbing FlightAware ADS-B
Thu 04:24:40 PM 47.9190 -97.1300 95° East 136 157 2,500 900 Climbing FlightAware ADS-B
Thu 04:25:01 PM 47.9180 -97.1090 94° East 140 161 2,800 933 Climbing FlightAware ADS-B
Thu 04:25:25 PM 47.9170 -97.0850 94° East 147 169 3,200 600 Climbing FlightAware ADS-B
Thu 04:25:41 PM 47.9160 -97.0700 96° East 158 182 3,200 316 Level FlightAware ADS-B
Thu 04:26:03 PM 47.9150 -97.0450 93° East 166 191 3,400 316 Climbing FlightAware ADS-B
Thu 04:26:19 PM 47.9150 -97.0280 90° East 175 201 3,400 500 Level FlightAware ADS-B
Thu 04:26:39 PM 47.9150 -97.0020 90° East 162 186 3,700 1,125 Climbing FlightAware ADS-B
Thu 04:27:07 PM 47.9150 -96.9740 90° East 147 169 4,300 1,286 Climbing FlightAware ADS-B
Thu 04:27:21 PM 47.9130 -96.9600 102° East 132 152 4,600 1,235 Climbing FlightAware ADS-B
Thu 04:27:41 PM 47.9100 -96.9420 104° East 134 154 5,000 955 Climbing FlightAware ADS-B
Thu 04:28:05 PM 47.9060 -96.9210 106° East 142 163 5,300 955 Climbing FlightAware ADS-B
Thu 04:28:25 PM 47.9020 -96.9010 107° East 139 160 5,700 1,200 Climbing FlightAware ADS-B
Thu 04:28:45 PM 47.8980 -96.8840 109° East 137 158 6,100 1,050 Climbing FlightAware ADS-B
Thu 04:29:05 PM 47.8940 -96.8650 107° East 144 166 6,400 818 Climbing FlightAware ADS-B
Thu 04:29:29 PM 47.8890 -96.8420 108° East 148 170 6,700 750 Climbing FlightAware ADS-B
Thu 04:29:45 PM 47.8850 -96.8270 112° Southeast 150 173 6,900 1,000 Climbing FlightAware ADS-B
Thu 04:30:11 PM 47.8790 -96.8010 109° East 151 174 7,400 913 Climbing FlightAware ADS-B
Thu 04:30:31 PM 47.8760 -96.7820 103° East 156 180 7,600 750 Climbing FlightAware ADS-B
Thu 04:30:51 PM 47.8710 -96.7600 109° East 154 177 7,900 900 Climbing FlightAware ADS-B
Thu 04:31:11 PM 47.8660 -96.7410 111° Southeast 152 175 8,200 714 Climbing FlightAware ADS-B
Thu 04:31:33 PM 47.8610 -96.7180 108° East 165 190 8,400 600 Climbing FlightAware ADS-B
Thu 04:31:51 PM 47.8570 -96.6990 107° East 169 194 8,600 789 Climbing FlightAware ADS-B
Thu 04:32:11 PM 47.8520 -96.6780 110° East 170 196 8,900 955 Climbing FlightAware ADS-B
Thu 04:32:35 PM 47.8460 -96.6490 107° East 174 200 9,300 900 Climbing FlightAware ADS-B
Thu 04:33:11 PM 47.8370 -96.6070 108° East 179 206 9,800 857 Climbing FlightAware ADS-B
Thu 04:33:45 PM 47.8290 -96.5670 107° East 178 205 10,300 882 Climbing FlightAware ADS-B
Thu 04:34:19 PM 47.8210 -96.5280 107° East 176 203 10,800 411 Climbing FlightAware ADS-B
Thu 04:34:58 PM 47.8130 -96.4890 107° East 176 203 10,800  Level FlightAware ADS-B
Thu 04:35:32 PM 47.8060 -96.4560 108° East 176 203 10,800  Level FlightAware ADS-B
Thu 04:36:06 PM 47.8000 -96.4220 105° East 176 203 10,800 179 Level FlightAware ADS-B
Thu 04:36:39 PM 47.7861 -96.3578 105° East 199 229 11,000 126 Climbing Minneapolis Center
Thu 04:37:41 PM 47.7683 -96.2744 108° East 209 241 11,000 -48 Level Minneapolis Center
Thu 04:38:43 PM 47.7514 -96.1972 108° East 202 232 10,900  Descending Minneapolis Center
Thu 04:39:45 PM 47.7353 -96.1239 108° East 192 221 11,000 48 Climbing Minneapolis Center
Thu 04:40:47 PM 47.7203 -96.0525 107° East 185 213 11,000 -48 Level Minneapolis Center
Thu 04:41:49 PM 47.7011 -95.9639 108° East 187 215 10,900 -97 Descending Minneapolis Center
Thu 04:42:51 PM 47.6878 -95.8908 105° East 185 213 10,800 -48 Descending Minneapolis Center
Thu 04:43:54 PM 47.6717 -95.8167 108° East 187 215 10,800  Level Minneapolis Center
Thu 04:44:56 PM 47.6567 -95.7469 108° East 182 209 10,800  Level Minneapolis Center
Thu 04:45:58 PM 47.6422 -95.6761 107° East 179 206 10,800  Level Minneapolis Center
Thu 04:47:00 PM 47.6256 -95.6028 109° East 185 213 10,800  Level Minneapolis Center
Thu 04:48:02 PM 47.6083 -95.5147 106° East 186 214 10,800  Level Minneapolis Center
Thu 04:49:04 PM 47.5928 -95.4508 110° East 189 217 10,800  Level Minneapolis Center
Thu 04:50:06 PM 47.5733 -95.3636 108° East 187 215 10,800  Level Minneapolis Center
Thu 04:51:08 PM 47.5592 -95.2914 106° East 185 213 10,800  Level Minneapolis Center
Thu 04:52:10 PM 47.5450 -95.2194 106° East 183 211 10,800 48 Level Minneapolis Center
Thu 04:53:12 PM 47.5275 -95.1450 109° East 188 216 10,900 145 Climbing Minneapolis Center
Thu 04:54:14 PM 47.5111 -95.0725 108° East 188 216 11,100 97 Climbing Minneapolis Center
Thu 04:55:16 PM 47.4919 -94.9861 108° East 186 214 11,100  Level Minneapolis Center
Thu 04:56:18 PM 47.4775 -94.9136 106° East 185 213 11,100  Level Minneapolis Center
Thu 04:57:20 PM 47.4608 -94.8408 109° East 186 214 11,100  Level Minneapolis Center
Thu 04:58:22 PM 47.4447 -94.7697 108° East 185 213 11,100  Level Minneapolis Center
Thu 04:59:25 PM 47.4303 -94.6969 106° East 185 213 11,100  Level Minneapolis Center
Thu 05:00:27 PM 47.4133 -94.6244 109° East 186 214 11,100  Level Minneapolis Center
Thu 05:01:29 PM 47.3933 -94.5347 108° East 191 220 11,100  Level Minneapolis Center
Thu 05:02:31 PM 47.3769 -94.4617 108° East 189 217 11,100  Level Minneapolis Center
Thu 05:03:33 PM 47.3611 -94.3881 108° East 189 217 11,100  Level Minneapolis Center
Thu 05:04:35 PM 47.3439 -94.3133 109° East 191 220 11,100  Level Minneapolis Center
Thu 05:05:37 PM 47.3267 -94.2392 109° East 192 221 11,100  Level Minneapolis Center
Thu 05:06:39 PM 47.3097 -94.1653 109° East 192 221 11,100  Level Minneapolis Center
Thu 05:07:41 PM 47.2892 -94.0753 109° East 193 222 11,100 48 Level Minneapolis Center
Thu 05:08:43 PM 47.2733 -94.0008 107° East 192 221 11,200  Climbing Minneapolis Center
Thu 05:09:45 PM 47.2561 -93.9253 109° East 193 222 11,100 -48 Descending Minneapolis Center
Thu 05:10:47 PM 47.2383 -93.8500 109° East 195 224 11,100  Level Minneapolis Center
Thu 05:11:50 PM 47.2208 -93.7742 109° East 196 226 11,100 -48 Level Minneapolis Center
Thu 05:12:52 PM 47.1986 -93.6819 109° East 198 228 11,000 -48 Descending Minneapolis Center
Thu 05:13:54 PM 47.1819 -93.6047 108° East 199 229 11,000  Level Minneapolis Center
Thu 05:14:56 PM 47.1642 -93.5308 109° East 197 227 11,000  Level Minneapolis Center
Thu 05:15:58 PM 47.1461 -93.4558 109° East 196 226 11,000 -48 Level Minneapolis Center
Thu 05:17:00 PM 47.1281 -93.3797 109° East 197 227 10,900  Descending Minneapolis Center
Thu 05:18:02 PM 47.1072 -93.2872 108° East 199 229 11,000 -194 Climbing Minneapolis Center
Thu 05:19:04 PM 47.0889 -93.2100 109° East 201 231 10,500 -592 Descending Minneapolis Center
Thu 05:24:37 PM 46.9830 -92.7680 109° East 201 231 7,100 -629 Descending FlightAware ADS-B
Thu 05:24:57 PM 46.9770 -92.7420 109° East 200 230 6,800 -789 Descending FlightAware ADS-B
Thu 05:25:15 PM 46.9710 -92.7190 111° Southeast 199 229 6,600 -682 Descending FlightAware ADS-B
Thu 05:25:41 PM 46.9640 -92.6870 108° East 198 228 6,300 -652 Descending FlightAware ADS-B
Thu 05:26:01 PM 46.9570 -92.6620 112° Southeast 199 229 6,100 -600 Descending FlightAware ADS-B
Thu 05:26:21 PM 46.9510 -92.6370 109° East 198 228 5,900 -732 Descending FlightAware ADS-B
Thu 05:26:42 PM 46.9450 -92.6100 108° East 196 226 5,600 -571 Descending FlightAware ADS-B
Thu 05:27:03 PM 46.9380 -92.5830 111° Southeast 192 221 5,500 -439 Descending FlightAware ADS-B
Thu 05:27:23 PM 46.9330 -92.5590 107° East 187 215 5,300 -409 Descending FlightAware ADS-B
Thu 05:27:47 PM 46.9260 -92.5310 110° East 182 209 5,200 -409 Descending FlightAware ADS-B
Thu 05:28:07 PM 46.9210 -92.5070 107° East 177 204 5,000 -375 Descending FlightAware ADS-B
Thu 05:28:19 PM 46.9170 -92.4940 114° Southeast 176 203 5,000 -667 Level FlightAware ADS-B
Thu 05:28:43 PM 46.9100 -92.4670 111° Southeast 177 204 4,600 -818 Descending FlightAware ADS-B
Thu 05:29:03 PM 46.9030 -92.4450 115° Southeast 174 200 4,400 -600 Descending FlightAware ADS-B
Thu 05:29:23 PM 46.8960 -92.4240 116° Southeast 174 200 4,200 -750 Descending FlightAware ADS-B
Thu 05:29:43 PM 46.8890 -92.4030 116° Southeast 172 198 3,900 -732 Descending FlightAware ADS-B
Thu 05:30:04 PM 46.8820 -92.3820 116° Southeast 171 197 3,700 -600 Descending FlightAware ADS-B
Thu 05:30:23 PM 46.8750 -92.3630 118° Southeast 167 192 3,500 -667 Descending FlightAware ADS-B
Thu 05:30:49 PM 46.8660 -92.3380 118° Southeast 144 166 3,200 -652 Descending FlightAware ADS-B
Thu 05:31:09 PM 46.8600 -92.3230 120° Southeast 118 136 3,000 -563 Descending FlightAware ADS-B
Thu 05:31:21 PM 46.8560 -92.3150 126° Southeast 108 124 2,900 -667 Descending FlightAware ADS-B
Thu 05:31:45 PM 46.8520 -92.3020 114° Southeast 78 90 2,600 -600 Descending FlightAware ADS-B
Thu 05:32:01 PM 46.8500 -92.2940 110° East 72 83 2,500 -333 Descending FlightAware ADS-B
Thu 05:32:21 PM 46.8480 -92.2850 108° East 71 82 2,400 -391 Descending FlightAware ADS-B
Thu 05:32:47 PM 46.8450 -92.2740 112° Southeast 71 82 2,200 -462 Descending FlightAware ADS-B

Login

Don't have an account? Register now (free) for customized features, flight alerts, and more!